www.pogodaiklimat.ru
Время
(UTC), дата
16:53 18.10
17:53 18.10
18:53 18.10
19:53 18.10
20:53 18.10
21:53 18.10
22:53 18.10
23:53 18.10
00:53 18.10
01:53 18.10
02:53 18.10
03:53 18.10
04:53 19.10
05:53 19.10
06:53 19.10
07:53 19.10
08:53 19.10
09:53 19.10
10:53 19.10
11:53 19.10
12:53 19.10
13:53 19.10
14:53 19.10
15:53 19.10
16:53 19.10
17:53 19.10
18:53 19.10
19:53 19.10
20:53 19.10
21:53 19.10
22:53 19.10
23:53 19.10
00:53 19.10
01:53 19.10
02:53 19.10
03:53 19.10
04:53 20.10
05:53 20.10
06:53 20.10
07:53 20.10
08:53 20.10
09:53 20.10
10:53 20.10
11:53 20.10
12:53 20.10
13:53 20.10
14:53 20.10
15:53 20.10
Ветер
(напр.,м/с)
Видим. Явления Облачность Т
(С)
Тd
(С)
f
(%)
Тe
(С)
Тes
(С)
Комфортность P
(гПа)
Po
(гПа)
Тmin
(С)
Tmax
(С)
R
(мм)
R24
(мм)
S
(см)
0 16 км 5/2 900 м
[верхняя]
+12.2 +2.2 50 +12 +20 1018.9 995.3 +2.2 +12.2
0 16 км 8/2 1200 м
[верхняя]
+12.2 +2.2 50 +12 +19 1018.2 994.6
З 1 16 км 8/2 1200 м
[верхняя]
+13.3 +2.2 47 +13 +18 1017.8 994.3
ЮЗ 2 16 км 8/2 1200 м
[верхняя]
+12.8 +2.2 48 +12 +15 1017.9 994.3
Ю 4 16 км 8/0 7500 м
[верхняя]
+11.7 +3.3 56 +9 +10 1017.6 994.0
Ю 3 16 км 8/0 6600 м
[верхняя]
+10.0 +3.3 63 +8 +8 1017.6 994.0
Ю 1 16 км 8/0 6600 м
[верхняя]
+8.3 +3.3 71 +7 +7 1017.9 994.3 +8.3 +13.3
0 16 км 8/0 6600 м
[верхняя]
+7.8 +3.3 73 +7 +7 1017.5 994.0
0 16 км 8/0 6600 м
[верхняя]
+7.2 +3.3 76 +6 +6 1017.5 994.0
0 14 км 8/0 6600 м
[верхняя]
+6.7 +3.3 79 +6 +6 1017.5 994.0
0 14 км 8/0 6600 м
[верхняя]
+6.1 +3.9 86 +5 +5 1017.3 993.6
0 13 км 2/0 7500 м
[верхняя]
+5.6 +3.3 85 +5 +5 1017.0 993.6
0 13 км 2/0 7500 м
[верхняя]
+5.0 +2.8 86 +4 +4 1016.8 993.3 +5.0 +8.3
0 11 км 2/0 7500 м
[верхняя]
+4.4 +2.8 89 +3 +3 1016.9 993.3
0 11 км 2/0 7500 м
[верхняя]
+3.9 +2.2 89 +3 +3 1016.7 993.3
0 11 км 2/0 7500 м
[верхняя]
+3.9 +2.2 89 +3 +3 1016.7 993.3
СВ 1 13 км 2/0 7500 м
[верхняя]
+3.3 +1.7 89 +1 +1 1016.5 993.0
0 13 км 2/0 6900 м
[верхняя]
+3.3 +1.7 89 +2 +2 1016.7 993.3
С 1 10 км туман, дымка 5/0 5400 м
[средняя верхняя]
+2.8 +1.1 89 0 0 1016.6 993.0 +2.2 +5.0
0 8 км мгла 2/0 5400 м
[средняя верхняя]
+5.6 +2.8 82 +5 +5 1016.4 993.0
0 10 км мгла 2/0 7500 м
[верхняя]
+8.9 +5.6 80 +8 +9 1016.5 993.0
Ю 3 16 км 2/0 7500 м
[верхняя]
+12.2 +6.7 69 +11 +12 1016.0 992.6
Ю 4 16 км 5/0 6000 м
[средняя верхняя]
+14.4 +5.0 53 +13 +15 1015.5 992.0
Ю 6 16 км 8/0 6000 м
[средняя верхняя]
+15.6 +3.9 46 +14 +16 1015.1 991.6
Ю 4 16 км 8/0 6000 м
[средняя верхняя]
+15.6 +3.9 46 +15 +18 1014.2 990.7 +2.8 +15.6
Ю 4 16 км 10/0 7200 м
[верхняя]
+15.6 +3.9 46 +15 +18 1013.3 990.0
ЮВ 4 16 км 8/0 6000 м
[средняя верхняя]
+14.4 +4.4 51 +13 +15 1012.7 989.3
ЮВ 4 16 км 8/0 5400 м
[средняя верхняя]
+14.4 +5.0 53 +13 +15 1011.9 988.7
ЮВ 4 16 км 5/0 5400 м
[средняя верхняя]
+13.9 +5.0 55 +13 +14 1011.5 988.0
ЮВ 1 16 км 8/0 4800 м
[средняя верхняя]
+12.8 +5.0 59 +13 +13 1011.4 988.0
В 3 14 км 8/0 4800 м
[средняя верхняя]
+11.1 +5.6 69 +9 +9 1011.1 987.7 +11.1 +16.1
В 2 14 км 8/0 4800 м
[средняя верхняя]
+10.6 +6.7 77 +9 +9 1011.2 987.7
0 14 км 8/0 4800 м
[средняя верхняя]
+10.6 +6.7 77 +10 +10 1011.2 988.0
0 13 км 8/0 4500 м
[средняя верхняя]
+10.0 +6.7 80 +9 +9 1010.9 987.7
0 13 км 8/0 4500 м
[средняя верхняя]
+8.9 +6.7 86 +8 +8 1010.5 987.3
0 11 км 8/0 4800 м
[средняя верхняя]
+8.3 +6.7 90 +7 +7 1010.3 987.0
0 13 км 8/0 4200 м
[средняя]
+10.0 +7.8 86 +9 +9 1010.0 987.0 +8.3 +11.1
0 13 км 8/0 4500 м
[средняя верхняя]
+10.0 +7.8 86 +9 +9 1009.6 986.4
0 11 км 8/0 4800 м
[средняя верхняя]
+8.9 +7.2 89 +8 +8 1009.3 986.0
0 8 км дымка 5/0 4800 м
[средняя верхняя]
+7.8 +6.7 93 +7 +7 1009.2 986.0
0 10 км дымка 8/0 3900 м
[средняя]
+7.8 +6.7 93 +7 +7 1009.6 986.4
0 10 км дымка 8/0 3300 м
[средняя]
+8.3 +7.2 93 +7 +7 1010.0 986.7
0 11 км 8/0 3300 м
[средняя]
+9.4 +7.2 86 +9 +9 1010.1 986.7 +7.2 +10.0
0 11 км 8/0 3000 м
[средняя]
+10.0 +7.8 86 +9 +9 1010.9 987.7
0 14 км 8/0 2400 м
[средняя]
+11.1 +8.3 83 +10 +11 1011.7 988.3
З 1 13 км 8/0 2250 м
[средняя]
+12.2 +8.3 77 +12 +13 1012.1 989.0
СЗ 3 16 км 8/8 1950 м +13.3 +8.3 72 +12 +12 1012.6 989.3
0 14 км 8/8 1800 м +16.1 +8.9 62 +16 +18 1012.5 989.3
Местоположение метеостанции Detroit Metropolitan Wayne County Airport: широта 42.2314 долгота -83.3308 высота над уровнем моря 194 м.
В архиве по умолчанию представлена погода в Детройте за последние 1-2 суток. Обновление информации о фактической погоде в базе происходит ежечасно! Архивные данные за месяц целиком и за предыдущие месяцы Вы можете получить, выбрав интересующий диапазон дат из раскрывающегося списка и нажав кнопку "Ввод!".
Внимание! Архив погоды МЕТАР в базе сайта по станциям, не включенным в климатический монитор, хранится не более 60 дней. Нет смысла пытаться выбрать более раннюю дату.
*Определитесь, кто Вы:
Внимание! Время в таблицах - всемирное. Для получения местного времени необходимо прибавить поправку, которая равна ч.
Смотрите также архив погоды в соседних городах и на ближайших метеорологических станциях:
Партнеры нашего сайта:      
Пояснения к столбцам:
  • Ветер - указаны скорость ветра в м/с - средняя за 10 мин, порывы в срок и между сроками (в фигурных скобках) и направление, откуда дует ветер: С - северный,
  • СВ - северо-восточный, В - восточный, ЮВ - юго-восточный, Ю - южный, ЮЗ - юго-западный, З - западный, СЗ - северо-западный.
  • Видимость - горизонтальная дальность видимости в метрах или километрах. При видимости от 1 до 10 км при отсутствии осадков обычно наблюдается дымка, при ухудшении видимости до 1 км и менее - туман. В сухую погоду видимость может ухудшаться дымом, пылью или мглою.
  • Явления - указаны атмосферные явления, наблюдавшиеся в срок или в последний час перед сроком; фигурными скобками обозначены явления, наблюдавшиеся между сроками (за 1-3 часа до срока); квадратными скобками обозначены град или гололедные отложения с указанием их диаметра в мм.
  • Облачность - указаны через наклонную черту общая и нижняя облачность в баллах и высота нижней границы облаков в метрах; квадратными скобками обозначены формы облаков: Ci - перистые, Cs - перисто-слоистые, Cc - перисто-кучевые, Ac - высококучевые, As - высокослоистые, Sc - слоисто-кучевые, Ns - слоисто-дождевые, Cu - кучевые, Cb - кучево-дождевые. Подробнее классификацию облаков см. в Атласе облаков (PDF).
  • T - Температура воздуха - температура, измеренная на высоте 2 м над землей.
  • Td - Температура точки росы - температура, при понижении до которой содержащийся в воздухе водяной пар достигнет насыщения.
  • f - Относительная влажность воздуха - влажноcть воздуха, измеренная на высоте 2 м над землей.
  • Te - Эффективная температура - температура, которую ощущает одетый по сезону человек в тени. Характеристика душности погоды. При расчете учитывается влияние влажности воздуха и скорости ветра на теплоощущения человека.
  • Tes - Эффективная температура на солнце - температура, которую ощущает человек, с поправкой на солнечный нагрев. Характеристика знойности погоды. Зависит от высоты солнца над горизонтом, облачности и скорости ветра. Ночью, в пасмурную погоду, а также при ветре 12 м/с и более поправка равна нулю.
  • P - Атмосферное давление - приведенное к уровню моря атмосферное давление.
  • Po - Атмосферное давление - измеренное на уровне метеостанции атмосферное давление.
  • Tmin - Минимальная температура - минимум температуры воздуха на высоте 2 м над землей.
  • Tmax - Максимальная температура - максимум температуры воздуха на высоте 2 м над землей.
  • R - Количество осадков - Количество выпавших осадков за период времени, мм. При наведении курсора мыши на число - период времени, за который выпало указанное количество осадков.
  • R24 - Количество осадков - Количество выпавших осадков за 24 часа, мм.
  • S - Снежный покров - Высота снежного покрова, см. При наведении курсора мыши на число - состояние снежного покрова и степень покрытия местности в баллах.